Location: Castle Hill Houses
(40.8186°N, 73.8497°W)
Time: 00:08:58
(UTC+00:00)

YAOGAN 6 - Pass Details

Date: 26 January 2020
Orbit: 465 x 506 km, 97.0° (Epoch: 23 February)

Event Time Altitude Azimuth Distance (km) Brightness Sun altitude
Rises 11:34:33 0° 14° (NNE) 2,530 6.2 -7.3°
Reaches altitude 10° 11:36:39 10° 18° (NNE) 1,642 5.3 -6.9°
Maximum altitude 11:40:08 63° 100° (E) 526 3.1 -6.3°
Drops below altitude 10° 11:43:35 10° 183° (S) 1,615 5.5 -5.7°
Sets 11:45:37 0° 186° (S) 2,484 6.4 -5.3°
